| time (UTC) | temp C | wind direction | speed KPH | gust KPH | rain 1hr cm | rain 24hr cm | rain mn cm | humidity % | barometer mb |
| 20260508213308 | 20 | 292 | 3.2 | 3.2 | 0.00 | 0.00 | 0.00 | 36 | 1006.7 |
| 20260508212804 | 20 | 7 | 3.2 | 3.2 | 0.00 | 0.00 | 0.00 | 35 | 1007.1 |
| 20260508212300 | 20 | 326 | 3.2 | 4.8 | 0.00 | 0.00 | 0.00 | 39 | 1006.9 |
| 20260508211756 | 20 | 331 | 3.2 | 3.2 | 0.00 | 0.00 | 0.00 | 36 | 1006.7 |
| 20260508211252 | 20 | 335 | 3.2 | 3.2 | 0.00 | 0.00 | 0.00 | 35 | 1007.0 |
| 20260508210750 | 18 | 348 | 0.0 | 1.6 | 0.00 | 0.00 | 0.00 | 39 | 1007.0 |
| 20260508210246 | 18 | 324 | 1.6 | 1.6 | 0.00 | 0.00 | 0.00 | 42 | 1007.0 |
| 20260508205743 | 18 | 340 | 6.4 | 9.7 | 0.00 | 0.00 | 0.00 | 38 | 1007.0 |
| 20260508205239 | 19 | 315 | 4.8 | 6.4 | 0.00 | 0.00 | 0.00 | 37 | 1007.0 |
| 20260508204736 | 18 | 304 | 4.8 | 4.8 | 0.00 | 0.00 | 0.00 | 38 | 1007.1 |
| 20260508204233 | 18 | 326 | 3.2 | 3.2 | 0.00 | 0.00 | 0.00 | 40 | 1007.1 |
| 20260508203729 | 18 | 298 | 3.2 | 3.2 | 0.00 | 0.00 | 0.00 | 38 | 1007.1 |
| 20260508203225 | 18 | 37 | 1.6 | 1.6 | 0.00 | 0.00 | 0.00 | 40 | 1007.1 |
| 20260508202716 | 18 | 323 | 0.0 | 1.6 | 0.00 | 0.00 | 0.00 | 40 | 1007.3 |
| 20260508202213 | 18 | 243 | 1.6 | 3.2 | 0.00 | 0.00 | 0.00 | 38 | 1007.4 |
| 20260508201710 | 18 | 255 | 1.6 | 3.2 | 0.00 | 0.00 | 0.00 | 37 | 1007.4 |
| 20260508201207 | 18 | 306 | 3.2 | 3.2 | 0.00 | 0.00 | 0.00 | 41 | 1007.5 |
| 20260508200704 | 18 | 6 | 1.6 | 3.2 | 0.00 | 0.00 | 0.00 | 39 | 1007.4 |
| 20260508200159 | 18 | 284 | 1.6 | 3.2 | 0.00 | 0.00 | 0.00 | 38 | 1007.5 |
| 20260508195656 | 18 | 0 | 0.0 | 1.6 | 0.00 | 0.00 | 0.00 | 36 | 1007.4 |
| 20260508195153 | 18 | 359 | 0.0 | 1.6 | 0.00 | 0.00 | 0.00 | 37 | 1007.8 |
| 20260508194649 | 18 | 274 | 1.6 | 3.2 | 0.00 | 0.00 | 0.00 | 36 | 1007.6 |
| 20260508194146 | 18 | 312 | 6.4 | 9.7 | 0.00 | 0.00 | 0.00 | 38 | 1008.0 |
| 20260508193643 | 18 | 350 | 0.0 | 1.6 | 0.00 | 0.00 | 0.00 | 38 | 1007.8 |
| 20260508193140 | 18 | 357 | 0.0 | 1.6 | 0.00 | 0.00 | 0.00 | 38 | 1007.8 |
| 20260508192636 | 18 | 281 | 1.6 | 3.2 | 0.00 | 0.00 | 0.00 | 37 | 1007.9 |
| 20260508192134 | 18 | 337 | 1.6 | 1.6 | 0.00 | 0.00 | 0.00 | 38 | 1007.9 |
| 20260508191630 | 18 | 348 | 1.6 | 3.2 | 0.00 | 0.00 | 0.00 | 37 | 1008.1 |
| 20260508191127 | 18 | 307 | 3.2 | 3.2 | 0.00 | 0.00 | 0.00 | 36 | 1008.3 |
| 20260508190625 | 18 | 304 | 0.0 | 1.6 | 0.00 | 0.00 | 0.00 | 38 | 1008.1 |
| 20260508190120 | 18 | 326 | 1.6 | 1.6 | 0.00 | 0.00 | 0.00 | 38 | 1008.2 |
| 20260508185617 | 19 | 202 | 4.8 | 6.4 | 0.00 | 0.00 | 0.00 | 36 | 1008.2 |
| 20260508185115 | 18 | 344 | 1.6 | 3.2 | 0.00 | 0.00 | 0.00 | 36 | 1008.1 |
| 20260508184612 | 18 | 339 | 3.2 | 3.2 | 0.00 | 0.00 | 0.00 | 34 | 1008.4 |
| 20260508184109 | 18 | 8 | 4.8 | 6.4 | 0.00 | 0.00 | 0.00 | 35 | 1008.3 |
| 20260508183605 | 18 | 326 | 4.8 | 6.4 | 0.00 | 0.00 | 0.00 | 35 | 1008.4 |
| 20260508183101 | 19 | 317 | 0.0 | 1.6 | 0.00 | 0.00 | 0.00 | 33 | 1008.4 |
| 20260508182558 | 19 | 303 | 6.4 | 6.4 | 0.00 | 0.00 | 0.00 | 32 | 1008.4 |
| 20260508182055 | 18 | 341 | 1.6 | 1.6 | 0.00 | 0.00 | 0.00 | 33 | 1008.5 |
| 20260508181555 | 18 | 15 | 0.0 | 1.6 | 0.00 | 0.00 | 0.00 | 33 | 1008.6 |
| 20260508181053 | 19 | 205 | 6.4 | 9.7 | 0.00 | 0.00 | 0.00 | 34 | 1008.4 |
| 20260508180550 | 20 | 5 | 1.6 | 1.6 | 0.00 | 0.00 | 0.00 | 40 | 1008.9 |
| 20260508180046 | 19 | 280 | 3.2 | 4.8 | 0.00 | 0.00 | 0.00 | 35 | 1008.6 |
| 20260508175543 | 19 | 297 | 4.8 | 4.8 | 0.00 | 0.00 | 0.00 | 37 | 1008.7 |
| 20260508175040 | 19 | 310 | 3.2 | 4.8 | 0.00 | 0.00 | 0.00 | 35 | 1008.8 |
| 20260508174538 | 18 | 353 | 0.0 | 0.0 | 0.00 | 0.00 | 0.00 | 41 | 1009.0 |
| 20260508174034 | 18 | 320 | 4.8 | 4.8 | 0.00 | 0.00 | 0.00 | 35 | 1009.0 |
| 20260508173531 | 18 | 0 | 9.7 | 12.9 | 0.00 | 0.00 | 0.00 | 34 | 1008.9 |
| 20260508173027 | 19 | 335 | 3.2 | 4.8 | 0.00 | 0.00 | 0.00 | 33 | 1009.2 |
| 20260508172524 | 19 | 41 | 0.0 | 1.6 | 0.00 | 0.00 | 0.00 | 36 | 1009.1 |
| 20260508172021 | 18 | 341 | 0.0 | 1.6 | 0.00 | 0.00 | 0.00 | 39 | 1009.0 |
| 20260508171518 | 18 | 209 | 4.8 | 6.4 | 0.00 | 0.00 | 0.00 | 36 | 1009.2 |
| 20260508171014 | 18 | 12 | 3.2 | 3.2 | 0.00 | 0.00 | 0.00 | 32 | 1009.5 |
| 20260508170512 | 18 | 18 | 4.8 | 4.8 | 0.00 | 0.00 | 0.00 | 37 | 1009.2 |
| 20260508170009 | 18 | 319 | 3.2 | 4.8 | 0.00 | 0.00 | 0.00 | 43 | 1009.3 |
| 20260508165506 | 18 | 237 | 4.8 | 4.8 | 0.00 | 0.00 | 0.00 | 36 | 1009.4 |
| 20260508165002 | 18 | 331 | 6.4 | 6.4 | 0.00 | 0.00 | 0.00 | 34 | 1009.4 |
| 20260508164459 | 18 | 287 | 3.2 | 3.2 | 0.00 | 0.00 | 0.00 | 38 | 1009.5 |
| 20260508163956 | 18 | 34 | 4.8 | 4.8 | 0.00 | 0.00 | 0.00 | 33 | 1009.7 |
| 20260508163454 | 17 | 244 | 1.6 | 1.6 | 0.00 | 0.00 | 0.00 | 36 | 1009.7 |
| 20260508162949 | 17 | 36 | 1.6 | 3.2 | 0.00 | 0.00 | 0.00 | 36 | 1009.7 |
| 20260508162447 | 17 | 314 | 6.4 | 6.4 | 0.00 | 0.00 | 0.00 | 39 | 1009.8 |
| 20260508161944 | 17 | 240 | 3.2 | 4.8 | 0.00 | 0.00 | 0.00 | 37 | 1010.1 |
| 20260508161441 | 17 | 331 | 3.2 | 4.8 | 0.00 | 0.00 | 0.00 | 44 | 1010.0 |
| 20260508160938 | 17 | 212 | 1.6 | 3.2 | 0.00 | 0.00 | 0.00 | 39 | 1009.9 |
| 20260508160437 | 17 | 340 | 3.2 | 3.2 | 0.00 | 0.00 | 0.00 | 41 | 1010.0 |
| 20260508155932 | 16 | 351 | 6.4 | 6.4 | 0.00 | 0.00 | 0.00 | 40 | 1010.0 |
| 20260508155430 | 17 | 314 | 6.4 | 6.4 | 0.00 | 0.00 | 0.00 | 39 | 1010.0 |
| 20260508154926 | 16 | 337 | 1.6 | 1.6 | 0.00 | 0.00 | 0.00 | 45 | 1010.1 |
| 20260508154424 | 16 | 340 | 1.6 | 1.6 | 0.00 | 0.00 | 0.00 | 39 | 1010.1 |
| 20260508153921 | 16 | 0 | 1.6 | 1.6 | 0.00 | 0.00 | 0.00 | 42 | 1010.1 |
| 20260508153418 | 15 | 227 | 1.6 | 3.2 | 0.00 | 0.00 | 0.00 | 43 | 1010.3 |
| 20260508152914 | 15 | 334 | 3.2 | 4.8 | 0.00 | 0.00 | 0.00 | 42 | 1010.3 |
| 20260508152411 | 15 | 200 | 3.2 | 3.2 | 0.00 | 0.00 | 0.00 | 43 | 1010.3 |
| 20260508151907 | 16 | 7 | 6.4 | 6.4 | 0.00 | 0.00 | 0.00 | 42 | 1010.4 |
| 20260508151404 | 17 | 275 | 3.2 | 4.8 | 0.00 | 0.00 | 0.00 | 39 | 1010.4 |
| 20260508150900 | 17 | 22 | 3.2 | 3.2 | 0.00 | 0.00 | 0.00 | 42 | 1010.1 |
| 20260508150357 | 16 | 314 | 1.6 | 3.2 | 0.00 | 0.00 | 0.00 | 41 | 1010.2 |
| 20260508145853 | 17 | 340 | 6.4 | 9.7 | 0.00 | 0.00 | 0.00 | 39 | 1010.4 |
| 20260508145349 | 16 | 313 | 1.6 | 3.2 | 0.00 | 0.00 | 0.00 | 44 | 1010.5 |
| 20260508144846 | 17 | 286 | 6.4 | 6.4 | 0.00 | 0.00 | 0.00 | 39 | 1010.5 |
| 20260508144344 | 16 | 3 | 1.6 | 1.6 | 0.00 | 0.00 | 0.00 | 41 | 1010.6 |
| 20260508143841 | 16 | 307 | 3.2 | 3.2 | 0.00 | 0.00 | 0.00 | 43 | 1010.4 |
| 20260508143338 | 16 | 314 | 4.8 | 6.4 | 0.00 | 0.00 | 0.00 | 38 | 1010.6 |
| 20260508142835 | 16 | 302 | 4.8 | 6.4 | 0.00 | 0.00 | 0.00 | 42 | 1010.5 |
| 20260508142332 | 16 | 266 | 3.2 | 3.2 | 0.00 | 0.00 | 0.00 | 42 | 1010.5 |
| 20260508141828 | 16 | 337 | 1.6 | 3.2 | 0.00 | 0.00 | 0.00 | 41 | 1010.8 |
| 20260508141325 | 16 | 41 | 3.2 | 3.2 | 0.00 | 0.00 | 0.00 | 45 | 1010.6 |
| 20260508140823 | 16 | 351 | 1.6 | 3.2 | 0.00 | 0.00 | 0.00 | 40 | 1010.6 |
| 20260508140320 | 15 | 85 | 3.2 | 4.8 | 0.00 | 0.00 | 0.00 | 40 | 1010.6 |
| 20260508135815 | 15 | 69 | 0.0 | 1.6 | 0.00 | 0.00 | 0.00 | 39 | 1010.6 |
| 20260508135312 | 15 | 357 | 0.0 | 1.6 | 0.00 | 0.00 | 0.00 | 41 | 1010.9 |
| 20260508134808 | 15 | 350 | 3.2 | 3.2 | 0.00 | 0.00 | 0.00 | 43 | 1010.8 |
| 20260508134305 | 15 | 358 | 0.0 | 1.6 | 0.00 | 0.00 | 0.00 | 44 | 1010.6 |
| 20260508133802 | 15 | 65 | 3.2 | 4.8 | 0.00 | 0.00 | 0.00 | 43 | 1010.6 |
| 20260508133259 | 15 | 76 | 3.2 | 6.4 | 0.00 | 0.00 | 0.00 | 42 | 1010.9 |
| 20260508132757 | 14 | 349 | 3.2 | 4.8 | 0.00 | 0.00 | 0.00 | 43 | 1010.6 |
| 20260508132254 | 13 | 329 | 3.2 | 3.2 | 0.00 | 0.00 | 0.00 | 50 | 1010.8 |
| 20260508131750 | 13 | 31 | 1.6 | 1.6 | 0.00 | 0.00 | 0.00 | 47 | 1010.9 |
| 20260508131246 | 13 | 0 | 1.6 | 1.6 | 0.00 | 0.00 | 0.00 | 47 | 1011.0 |
| 20260508130743 | 13 | 35 | 3.2 | 4.8 | 0.00 | 0.00 | 0.00 | 45 | 1010.9 |
| 20260508130240 | 13 | 297 | 6.4 | 6.4 | 0.00 | 0.00 | 0.00 | 44 | 1010.9 |
| 20260508125736 | 13 | 31 | 1.6 | 3.2 | 0.00 | 0.00 | 0.00 | 45 | 1010.8 |
| 20260508125232 | 13 | 3 | 1.6 | 3.2 | 0.00 | 0.00 | 0.00 | 46 | 1010.8 |
| 20260508124731 | 13 | 40 | 1.6 | 3.2 | 0.00 | 0.00 | 0.00 | 47 | 1010.9 |
| 20260508124227 | 12 | 27 | 0.0 | 1.6 | 0.00 | 0.00 | 0.00 | 51 | 1010.9 |
| 20260508123726 | 12 | 355 | 0.0 | 0.0 | 0.00 | 0.00 | 0.00 | 56 | 1011.2 |
| 20260508123223 | 11 | 35 | 1.6 | 3.2 | 0.00 | 0.00 | 0.00 | 56 | 1010.9 |
| 20260508122719 | 10 | 7 | 0.0 | 1.6 | 0.00 | 0.00 | 0.00 | 61 | 1011.1 |
| 20260508122216 | 10 | 4 | 0.0 | 0.0 | 0.00 | 0.00 | 0.00 | 61 | 1011.0 |
| 20260508121714 | 10 | 57 | 0.0 | 1.6 | 0.00 | 0.00 | 0.00 | 64 | 1011.1 |
| 20260508121212 | 9 | 35 | 0.0 | 1.6 | 0.00 | 0.00 | 0.00 | 70 | 1011.2 |
| 20260508120709 | 8 | 15 | 0.0 | 0.0 | 0.00 | 0.00 | 0.00 | 76 | 1011.2 |
| 20260508120207 | 7 | 6 | 0.0 | 0.0 | 0.00 | 0.00 | 0.00 | 83 | 1011.1 |
| 20260508115705 | 6 | 9 | 0.0 | 0.0 | 0.00 | 0.00 | 0.00 | 84 | 1011.3 |
| 20260508115201 | 5 | 4 | 0.0 | 0.0 | 0.00 | 0.00 | 0.00 | 86 | 1011.3 |
| 20260508114658 | 5 | 3 | 0.0 | 0.0 | 0.00 | 0.00 | 0.00 | 87 | 1011.0 |
| 20260508114155 | 4 | 6 | 0.0 | 0.0 | 0.00 | 0.00 | 0.00 | 89 | 1011.2 |
| 20260508113652 | 3 | 6 | 0.0 | 0.0 | 0.00 | 0.00 | 0.00 | 91 | 1011.0 |
| 20260508113150 | 3 | 353 | 0.0 | 0.0 | 0.00 | 0.00 | 0.00 | 93 | 1010.8 |
| 20260508112646 | 2 | 357 | 0.0 | 0.0 | 0.00 | 0.00 | 0.00 | 98 | 1010.8 |
| 20260508112143 | 2 | 14 | 0.0 | 0.0 | 0.00 | 0.00 | 0.00 | 99 | 1011.1 |
| 20260508111639 | 1 | 6 | 0.0 | 0.0 | 0.00 | 0.00 | 0.00 | 99 | 1011.0 |
| 20260508111137 | 1 | 5 | 0.0 | 0.0 | 0.00 | 0.00 | 0.00 | 98 | 1010.9 |
| 20260508110635 | 1 | 5 | 0.0 | 0.0 | 0.00 | 0.00 | 0.00 | 98 | 1010.8 |
| 20260508110131 | 0 | 5 | 0.0 | 0.0 | 0.00 | 0.00 | 0.00 | 98 | 1010.6 |
| 20260508105626 | 0 | 5 | 0.0 | 0.0 | 0.00 | 0.00 | 0.00 | 98 | 1010.6 |
| 20260508105123 | 0 | 5 | 0.0 | 0.0 | 0.00 | 0.00 | 0.00 | 98 | 1010.6 |
| 20260508104621 | 0 | 5 | 0.0 | 0.0 | 0.00 | 0.00 | 0.00 | 98 | 1010.6 |
| 20260508104117 | 0 | 5 | 0.0 | 0.0 | 0.00 | 0.00 | 0.00 | 98 | 1010.4 |
| 20260508103614 | 0 | 5 | 0.0 | 0.0 | 0.00 | 0.00 | 0.00 | 98 | 1010.5 |
| 20260508103112 | 0 | 4 | 0.0 | 0.0 | 0.00 | 0.00 | 0.00 | 98 | 1010.2 |
| 20260508102609 | 0 | 4 | 0.0 | 0.0 | 0.00 | 0.00 | 0.00 | 98 | 1010.4 |
| 20260508102107 | 0 | 4 | 0.0 | 0.0 | 0.00 | 0.00 | 0.00 | 98 | 1010.1 |
| 20260508101604 | 0 | 4 | 0.0 | 0.0 | 0.00 | 0.00 | 0.00 | 98 | 1010.2 |
| 20260508101101 | 0 | 7 | 0.0 | 0.0 | 0.00 | 0.00 | 0.00 | 98 | 1010.2 |
| 20260508100559 | 0 | 0 | 0.0 | 0.0 | 0.00 | 0.00 | 0.00 | 97 | 1010.0 |
| 20260508100055 | 0 | 1 | 0.0 | 0.0 | 0.00 | 0.00 | 0.00 | 97 | 1010.1 |
| 20260508095553 | 0 | 1 | 0.0 | 0.0 | 0.00 | 0.00 | 0.00 | 97 | 1009.8 |
| 20260508095049 | 0 | 1 | 0.0 | 0.0 | 0.00 | 0.00 | 0.00 | 97 | 1010.0 |
| 20260508094547 | 0 | 1 | 0.0 | 0.0 | 0.00 | 0.00 | 0.00 | 97 | 1010.1 |
| 20260508094044 | 0 | 1 | 0.0 | 0.0 | 0.00 | 0.00 | 0.00 | 97 | 1010.3 |
| 20260508093541 | 0 | 1 | 0.0 | 0.0 | 0.00 | 0.00 | 0.00 | 97 | 1010.2 |
| 20260508093038 | 0 | 0 | 0.0 | 0.0 | 0.00 | 0.00 | 0.00 | 97 | 1010.0 |
| 20260508092535 | 0 | 2 | 0.0 | 0.0 | 0.00 | 0.00 | 0.00 | 97 | 1010.2 |
| 20260508092034 | 0 | 2 | 0.0 | 0.0 | 0.00 | 0.00 | 0.00 | 96 | 1010.3 |
| 20260508091531 | 0 | 2 | 0.0 | 0.0 | 0.00 | 0.00 | 0.00 | 96 | 1010.3 |
| 20260508091028 | 0 | 2 | 0.0 | 0.0 | 0.00 | 0.00 | 0.00 | 96 | 1010.1 |
| 20260508090526 | 0 | 0 | 0.0 | 0.0 | 0.00 | 0.00 | 0.00 | 96 | 1010.1 |
| 20260508090022 | 0 | 3 | 0.0 | 0.0 | 0.00 | 0.00 | 0.00 | 96 | 1010.2 |
| 20260508085519 | 0 | 3 | 0.0 | 0.0 | 0.00 | 0.00 | 0.00 | 96 | 1010.1 |
| 20260508085016 | 1 | 3 | 0.0 | 0.0 | 0.00 | 0.00 | 0.00 | 96 | 1009.8 |
| 20260508084513 | 0 | 3 | 0.0 | 0.0 | 0.00 | 0.00 | 0.00 | 95 | 1009.9 |
| 20260508084010 | 1 | 3 | 0.0 | 0.0 | 0.00 | 0.00 | 0.00 | 95 | 1009.8 |
| 20260508083507 | 1 | 3 | 0.0 | 0.0 | 0.00 | 0.00 | 0.00 | 95 | 1009.7 |
| 20260508083004 | 1 | 3 | 0.0 | 0.0 | 0.00 | 0.00 | 0.00 | 94 | 1009.6 |
| 20260508082459 | 1 | 3 | 0.0 | 0.0 | 0.00 | 0.00 | 0.00 | 94 | 1009.8 |
| 20260508081957 | 1 | 3 | 0.0 | 0.0 | 0.00 | 0.00 | 0.00 | 93 | 1009.5 |
| 20260508081453 | 1 | 3 | 0.0 | 0.0 | 0.00 | 0.00 | 0.00 | 93 | 1009.6 |
| 20260508080944 | 1 | 2 | 0.0 | 0.0 | 0.00 | 0.00 | 0.00 | 92 | 1009.6 |
| 20260508080443 | 2 | 2 | 0.0 | 0.0 | 0.00 | 0.00 | 0.00 | 91 | 1009.5 |
| 20260508075939 | 2 | 3 | 0.0 | 0.0 | 0.00 | 0.00 | 0.00 | 90 | 1009.3 |
| 20260508075436 | 2 | 3 | 0.0 | 0.0 | 0.00 | 0.00 | 0.00 | 90 | 1009.5 |
| 20260508074933 | 2 | 7 | 0.0 | 0.0 | 0.00 | 0.00 | 0.00 | 89 | 1009.4 |
| 20260508074431 | 2 | 0 | 0.0 | 0.0 | 0.00 | 0.00 | 0.00 | 89 | 1009.5 |
| 20260508073928 | 3 | 3 | 0.0 | 0.0 | 0.00 | 0.00 | 0.00 | 86 | 1009.4 |
| 20260508073425 | 3 | 353 | 1.6 | 1.6 | 0.00 | 0.00 | 0.00 | 85 | 1009.9 |
| 20260508072922 | 3 | 2 | 0.0 | 0.0 | 0.00 | 0.00 | 0.00 | 85 | 1009.4 |
| 20260508072418 | 3 | 10 | 0.0 | 0.0 | 0.00 | 0.00 | 0.00 | 83 | 1009.7 |
| 20260508071916 | 4 | 22 | 0.0 | 0.0 | 0.00 | 0.00 | 0.00 | 84 | 1009.4 |
| 20260508071414 | 4 | 359 | 0.0 | 0.0 | 0.00 | 0.00 | 0.00 | 83 | 1009.6 |
| 20260508070911 | 5 | 13 | 0.0 | 0.0 | 0.00 | 0.00 | 0.00 | 80 | 1009.4 |
| 20260508070409 | 5 | 20 | 0.0 | 0.0 | 0.00 | 0.00 | 0.00 | 82 | 1009.5 |
| 20260508065907 | 5 | 0 | 0.0 | 0.0 | 0.00 | 0.00 | 0.00 | 80 | 1009.4 |
| 20260508065404 | 4 | 358 | 0.0 | 0.0 | 0.00 | 0.00 | 0.00 | 84 | 1009.5 |
| 20260508064902 | 4 | 1 | 0.0 | 0.0 | 0.00 | 0.00 | 0.00 | 81 | 1009.4 |
| 20260508064359 | 4 | 4 | 0.0 | 0.0 | 0.00 | 0.00 | 0.00 | 82 | 1009.4 |
| 20260508063857 | 4 | 15 | 0.0 | 0.0 | 0.00 | 0.00 | 0.00 | 83 | 1009.4 |
| 20260508063355 | 5 | 350 | 0.0 | 0.0 | 0.00 | 0.00 | 0.00 | 82 | 1009.5 |
| 20260508062851 | 4 | 19 | 0.0 | 0.0 | 0.00 | 0.00 | 0.00 | 83 | 1009.4 |
| 20260508062349 | 5 | 22 | 0.0 | 1.6 | 0.00 | 0.00 | 0.00 | 81 | 1009.2 |
| 20260508061846 | 5 | 1 | 0.0 | 0.0 | 0.00 | 0.00 | 0.00 | 81 | 1009.4 |
| 20260508061343 | 5 | 10 | 0.0 | 0.0 | 0.00 | 0.00 | 0.00 | 78 | 1009.3 |
| 20260508060840 | 5 | 3 | 0.0 | 1.6 | 0.00 | 0.00 | 0.00 | 82 | 1009.3 |
| 20260508060338 | 5 | 7 | 0.0 | 0.0 | 0.00 | 0.00 | 0.00 | 79 | 1009.1 |
| 20260508055832 | 6 | 358 | 0.0 | 0.0 | 0.00 | 0.00 | 0.00 | 78 | 1009.3 |
| 20260508055330 | 6 | 336 | 1.6 | 1.6 | 0.00 | 0.00 | 0.00 | 75 | 1009.5 |
| 20260508054826 | 6 | 199 | 3.2 | 3.2 | 0.00 | 0.00 | 0.00 | 70 | 1009.3 |
| 20260508054324 | 7 | 3 | 0.0 | 0.0 | 0.00 | 0.00 | 0.00 | 71 | 1009.3 |
| 20260508053821 | 6 | 340 | 1.6 | 3.2 | 0.00 | 0.00 | 0.00 | 65 | 1009.3 |
| 20260508053319 | 6 | 15 | 0.0 | 1.6 | 0.00 | 0.00 | 0.00 | 75 | 1009.6 |
| 20260508052815 | 6 | 358 | 0.0 | 0.0 | 0.00 | 0.00 | 0.00 | 76 | 1009.6 |
| 20260508052313 | 7 | 22 | 0.0 | 0.0 | 0.00 | 0.00 | 0.00 | 74 | 1009.2 |
| 20260508051809 | 7 | 343 | 1.6 | 1.6 | 0.00 | 0.00 | 0.00 | 67 | 1009.4 |
| 20260508051304 | 8 | 357 | 0.0 | 0.0 | 0.00 | 0.00 | 0.00 | 69 | 1009.3 |
| 20260508050801 | 8 | 352 | 3.2 | 3.2 | 0.00 | 0.00 | 0.00 | 66 | 1009.4 |
| 20260508050258 | 8 | 341 | 1.6 | 4.8 | 0.00 | 0.00 | 0.00 | 66 | 1009.4 |
| 20260508045754 | 8 | 6 | 0.0 | 1.6 | 0.00 | 0.00 | 0.00 | 61 | 1009.3 |
| 20260508045252 | 8 | 31 | 0.0 | 1.6 | 0.00 | 0.00 | 0.00 | 67 | 1009.1 |
| 20260508044749 | 7 | 336 | 0.0 | 0.0 | 0.00 | 0.00 | 0.00 | 63 | 1009.3 |
| 20260508044245 | 8 | 17 | 1.6 | 1.6 | 0.00 | 0.00 | 0.00 | 66 | 1009.1 |
| 20260508043741 | 10 | 338 | 0.0 | 1.6 | 0.00 | 0.00 | 0.00 | 59 | 1009.3 |
| 20260508043239 | 10 | 36 | 1.6 | 1.6 | 0.00 | 0.00 | 0.00 | 56 | 1008.9 |
| 20260508042735 | 10 | 12 | 0.0 | 0.0 | 0.00 | 0.00 | 0.00 | 51 | 1009.0 |
| 20260508042233 | 10 | 0 | 3.2 | 3.2 | 0.00 | 0.00 | 0.00 | 55 | 1008.9 |
| 20260508041729 | 10 | 153 | 3.2 | 3.2 | 0.00 | 0.00 | 0.00 | 52 | 1008.6 |
| 20260508041226 | 10 | 6 | 0.0 | 0.0 | 0.00 | 0.00 | 0.00 | 56 | 1008.4 |
| 20260508040723 | 11 | 51 | 1.6 | 1.6 | 0.00 | 0.00 | 0.00 | 50 | 1008.4 |
| 20260508040220 | 11 | 305 | 1.6 | 1.6 | 0.00 | 0.00 | 0.00 | 51 | 1008.5 |
| 20260508035717 | 10 | 103 | 1.6 | 1.6 | 0.00 | 0.00 | 0.00 | 56 | 1008.5 |
| 20260508035215 | 10 | 0 | 0.0 | 0.0 | 0.00 | 0.00 | 0.00 | 59 | 1008.2 |
| 20260508034711 | 10 | 336 | 0.0 | 1.6 | 0.00 | 0.00 | 0.00 | 49 | 1008.3 |
| 20260508034209 | 10 | 43 | 1.6 | 1.6 | 0.00 | 0.00 | 0.00 | 57 | 1008.2 |
| 20260508033705 | 10 | 11 | 0.0 | 1.6 | 0.00 | 0.00 | 0.00 | 58 | 1007.9 |
| 20260508033204 | 11 | 8 | 0.0 | 0.0 | 0.00 | 0.00 | 0.00 | 55 | 1008.1 |
| 20260508032701 | 8 | 69 | 1.6 | 1.6 | 0.00 | 0.00 | 0.00 | 63 | 1008.1 |
| 20260508032158 | 9 | 211 | 3.2 | 3.2 | 0.00 | 0.00 | 0.00 | 70 | 1007.9 |
| 20260508031655 | 8 | 186 | 3.2 | 3.2 | 0.00 | 0.00 | 0.00 | 64 | 1007.8 |
| 20260508031151 | 8 | 14 | 3.2 | 4.8 | 0.00 | 0.00 | 0.00 | 67 | 1008.0 |
| 20260508030647 | 7 | 27 | 1.6 | 1.6 | 0.00 | 0.00 | 0.00 | 62 | 1007.8 |
| 20260508030145 | 7 | 31 | 1.6 | 1.6 | 0.00 | 0.00 | 0.00 | 73 | 1007.8 |
| 20260508025641 | 7 | 42 | 1.6 | 1.6 | 0.00 | 0.00 | 0.00 | 76 | 1007.8 |
| 20260508025138 | 7 | 15 | 0.0 | 0.0 | 0.00 | 0.00 | 0.00 | 78 | 1007.9 |
| 20260508024634 | 7 | 354 | 3.2 | 4.8 | 0.00 | 0.00 | 0.00 | 77 | 1007.6 |
| 20260508024132 | 7 | 8 | 0.0 | 0.0 | 0.00 | 0.00 | 0.00 | 76 | 1007.8 |
| 20260508023627 | 7 | 31 | 0.0 | 1.6 | 0.00 | 0.00 | 0.00 | 75 | 1007.8 |
| 20260508023126 | 7 | 4 | 0.0 | 0.0 | 0.00 | 0.00 | 0.00 | 77 | 1007.6 |
| 20260508022621 | 7 | 12 | 0.0 | 0.0 | 0.00 | 0.00 | 0.00 | 74 | 1007.9 |
| 20260508022119 | 8 | 17 | 1.6 | 1.6 | 0.00 | 0.00 | 0.00 | 73 | 1007.5 |
| 20260508021614 | 8 | 1 | 1.6 | 3.2 | 0.00 | 0.00 | 0.00 | 75 | 1007.5 |
| 20260508021110 | 8 | 6 | 0.0 | 0.0 | 0.00 | 0.00 | 0.00 | 73 | 1007.5 |
| 20260508020608 | 8 | 353 | 1.6 | 1.6 | 0.00 | 0.00 | 0.00 | 74 | 1007.5 |
| 20260508020105 | 8 | 8 | 0.0 | 0.0 | 0.00 | 0.00 | 0.00 | 72 | 1007.4 |
| 20260508015603 | 9 | 338 | 0.0 | 0.0 | 0.00 | 0.00 | 0.00 | 69 | 1007.3 |
| 20260508015059 | 10 | 3 | 0.0 | 0.0 | 0.00 | 0.00 | 0.00 | 70 | 1007.1 |
| 20260508014556 | 10 | 26 | 0.0 | 0.0 | 0.00 | 0.00 | 0.00 | 65 | 1007.1 |
| 20260508014052 | 10 | 334 | 0.0 | 0.0 | 0.00 | 0.00 | 0.00 | 63 | 1007.1 |
| 20260508013548 | 11 | 14 | 0.0 | 0.0 | 0.00 | 0.00 | 0.00 | 54 | 1007.1 |
| 20260508013045 | 11 | 34 | 0.0 | 0.0 | 0.00 | 0.00 | 0.00 | 64 | 1007.1 |
| 20260508012543 | 10 | 312 | 3.2 | 3.2 | 0.00 | 0.00 | 0.00 | 59 | 1007.0 |
| 20260508012040 | 10 | 10 | 0.0 | 0.0 | 0.00 | 0.00 | 0.00 | 63 | 1007.0 |
| 20260508011538 | 11 | 4 | 0.0 | 0.0 | 0.00 | 0.00 | 0.00 | 60 | 1006.7 |
| 20260508011035 | 12 | 354 | 0.0 | 0.0 | 0.00 | 0.00 | 0.00 | 57 | 1006.8 |
| 20260508010532 | 13 | 20 | 0.0 | 0.0 | 0.00 | 0.00 | 0.00 | 50 | 1006.5 |
| 20260508010030 | 13 | 341 | 0.0 | 0.0 | 0.00 | 0.00 | 0.00 | 47 | 1006.6 |
| 20260508005526 | 13 | 2 | 1.6 | 1.6 | 0.00 | 0.00 | 0.00 | 47 | 1006.5 |
| 20260508005023 | 13 | 208 | 1.6 | 3.2 | 0.00 | 0.00 | 0.00 | 47 | 1006.5 |
| 20260508004519 | 13 | 93 | 4.8 | 4.8 | 0.00 | 0.00 | 0.00 | 48 | 1006.3 |
| 20260508004016 | 13 | 358 | 0.0 | 0.0 | 0.00 | 0.00 | 0.00 | 49 | 1006.3 |
| 20260508003512 | 14 | 353 | 1.6 | 1.6 | 0.00 | 0.00 | 0.00 | 45 | 1006.4 |
| 20260508003010 | 14 | 354 | 0.0 | 0.0 | 0.00 | 0.00 | 0.00 | 44 | 1006.5 |
| 20260508002505 | 14 | 112 | 1.6 | 3.2 | 0.00 | 0.00 | 0.00 | 44 | 1006.2 |
| 20260508002003 | 14 | 216 | 3.2 | 3.2 | 0.00 | 0.00 | 0.00 | 46 | 1006.2 |
| 20260508001458 | 14 | 346 | 1.6 | 1.6 | 0.00 | 0.00 | 0.00 | 44 | 1006.2 |
| 20260508000954 | 14 | 306 | 1.6 | 1.6 | 0.00 | 0.00 | 0.00 | 46 | 1006.0 |
| 20260508000445 | 14 | 349 | 0.0 | 1.6 | 0.00 | 0.00 | 0.00 | 46 | 1006.0 |
| 20260507235942 | 14 | 30 | 0.0 | 1.6 | 0.00 | 0.00 | 0.00 | 43 | 1005.7 |
| 20260507235439 | 15 | 343 | 0.0 | 1.6 | 0.00 | 0.00 | 0.00 | 43 | 1005.7 |
| 20260507234937 | 15 | 13 | 4.8 | 4.8 | 0.00 | 0.00 | 0.00 | 43 | 1005.6 |
| 20260507234433 | 15 | 318 | 0.0 | 1.6 | 0.00 | 0.00 | 0.00 | 42 | 1005.7 |
| 20260507233929 | 15 | 349 | 1.6 | 3.2 | 0.00 | 0.00 | 0.00 | 45 | 1005.6 |
| 20260507233427 | 15 | 37 | 1.6 | 1.6 | 0.00 | 0.00 | 0.00 | 40 | 1005.6 |
| 20260507232925 | 15 | 275 | 1.6 | 4.8 | 0.00 | 0.00 | 0.00 | 38 | 1005.6 |
| 20260507232421 | 16 | 339 | 0.0 | 1.6 | 0.00 | 0.00 | 0.00 | 41 | 1005.4 |
| 20260507231918 | 16 | 43 | 0.0 | 1.6 | 0.00 | 0.00 | 0.00 | 39 | 1005.6 |
| 20260507231415 | 16 | 347 | 0.0 | 0.0 | 0.00 | 0.00 | 0.00 | 41 | 1005.6 |
| 20260507230911 | 16 | 218 | 6.4 | 6.4 | 0.00 | 0.00 | 0.00 | 40 | 1005.3 |
| 20260507230409 | 16 | 298 | 1.6 | 1.6 | 0.00 | 0.00 | 0.00 | 41 | 1005.3 |
| 20260507225908 | 16 | 206 | 1.6 | 1.6 | 0.00 | 0.00 | 0.00 | 40 | 1005.1 |
| 20260507225405 | 16 | 313 | 4.8 | 9.7 | 0.00 | 0.00 | 0.00 | 39 | 1005.4 |
| 20260507224901 | 16 | 321 | 3.2 | 3.2 | 0.00 | 0.00 | 0.00 | 40 | 1005.2 |
| 20260507224357 | 17 | 323 | 0.0 | 0.0 | 0.00 | 0.00 | 0.00 | 37 | 1005.3 |
| 20260507223853 | 17 | 2 | 1.6 | 1.6 | 0.00 | 0.00 | 0.00 | 43 | 1004.8 |
| 20260507223350 | 17 | 316 | 6.4 | 6.4 | 0.00 | 0.00 | 0.00 | 38 | 1004.7 |
| 20260507222847 | 17 | 324 | 3.2 | 4.8 | 0.00 | 0.00 | 0.00 | 37 | 1004.7 |
| 20260507222343 | 17 | 337 | 3.2 | 4.8 | 0.00 | 0.00 | 0.00 | 37 | 1004.9 |
| 20260507221840 | 17 | 317 | 3.2 | 3.2 | 0.00 | 0.00 | 0.00 | 42 | 1004.7 |
| 20260507221337 | 17 | 226 | 6.4 | 9.7 | 0.00 | 0.00 | 0.00 | 38 | 1004.5 |
| 20260507220832 | 17 | 92 | 3.2 | 4.8 | 0.00 | 0.00 | 0.00 | 40 | 1004.5 |
| 20260507220331 | 17 | 352 | 1.6 | 4.8 | 0.00 | 0.00 | 0.00 | 39 | 1004.5 |
| 20260507215827 | 17 | 318 | 3.2 | 4.8 | 0.00 | 0.00 | 0.00 | 41 | 1004.5 |
| 20260507215324 | 17 | 292 | 6.4 | 6.4 | 0.00 | 0.00 | 0.00 | 37 | 1004.3 |
| 20260507214821 | 17 | 339 | 3.2 | 4.8 | 0.00 | 0.00 | 0.00 | 46 | 1004.4 |
| 20260507214319 | 17 | 2 | 3.2 | 3.2 | 0.00 | 0.00 | 0.00 | 38 | 1004.4 |
| 20260507213813 | 18 | 343 | 6.4 | 9.7 | 0.00 | 0.00 | 0.00 | 38 | 1004.1 |